Rantoul, IL

4:26 AM CDT on October 19, 2017 (GMT -0500)
Rantoul

Weather History for KTIP - November, 2013

Change the Weather History Date:

Wednesday, November 6, 2013

  Actual Average (KCMI) Record (KCMI)
Temperature  
Mean Temperature 47 °F -  
Max Temperature 58 °F 52 °F 68 °F (1996)
Min Temperature 36 °F 34 °F 19 °F (2010)
Degree Days  
Heating Degree Days 18    
Moisture  
Dew Point 45 °F    
Average Humidity 85    
Maximum Humidity 91    
Minimum Humidity 70    
Precipitation  
Precipitation 0.04 in - - ()
Sea Level Pressure  
Sea Level Pressure 30.02 in    
Wind  
Wind Speed 16 mph (WSW)    
Max Wind Speed 21 mph    
Max Gust Speed 29 mph    
Visibility 9 miles    
Events Rain    
Averages and records for this station are not official NWS values.
T = Trace of Precipitation, MM = Missing Value Source: NWS Daily Summary

Daily Weather History Graph

Daily Weather History Graph

Search for Another Location

Airport or City:

Trip Planner

Search our weather history database for the weather conditions in past years. The results will help you decide how hot, cold, wet, or windy it might be!

Date:

Astronomy

Nov. 06, 2013 Rise Set
Actual Time 6:28 AM CST 4:43 PM CST
Civil Twilight 5:59 AM CST 5:12 PM CST
Nautical Twilight 5:27 AM CST 5:44 PM CST
Astronomical Twilight 4:55 AM CST 6:16 PM CST
Moon 9:43 AM CST (11/6) 7:47 PM CST (11/6)
Length of Visible Light 11h 12m
Length of Day
10h 15m
Waxing Crescent, 14% of the Moon is Illuminated
Nov 6
Waxing Crescent
Nov 9
First Quarter
Nov 17
Full
Nov 25
Last Quarter
Dec 2
New

Hourly Weather History & Observations

Time (CST) Temp. Windchill Dew Point Humidity Pressure Visibility Wind Dir Wind Speed Gust Speed Precip Events Conditions
12:15 AM 57.9 °F - 48.2 °F 70% 30.02 in 10.0 mi South 18.4 mph 23.0 mph N/A   Scattered Clouds
12:35 AM 58.3 °F - 48.7 °F 71% 30.01 in 10.0 mi South 18.4 mph - N/A   Scattered Clouds
12:55 AM 58.3 °F - 49.3 °F 72% 30.01 in 10.0 mi South 17.3 mph - N/A Rain Rain
1:15 AM 58.1 °F - 50.0 °F 74% 30.01 in 10.0 mi South 18.4 mph 24.2 mph N/A Rain Rain
1:35 AM 57.2 °F - 50.9 °F 79% 30.00 in 10.0 mi South 18.4 mph 23.0 mph N/A Rain Light Rain
1:55 AM 57.2 °F - 51.4 °F 81% 29.99 in 10.0 mi South 16.1 mph 23.0 mph N/A Rain Light Rain
2:15 AM 56.8 °F - 51.8 °F 83% 29.98 in 10.0 mi South 17.3 mph - N/A Rain Light Rain
2:35 AM 56.5 °F - 52.0 °F 85% 29.97 in 10.0 mi South 15.0 mph 24.2 mph N/A Rain Light Rain
2:55 AM 56.3 °F - 52.3 °F 87% 29.97 in 10.0 mi South 18.4 mph 24.2 mph 0.01 in Rain Light Rain
3:15 AM 56.1 °F - 52.2 °F 87% 29.96 in 10.0 mi South 16.1 mph 24.2 mph N/A Rain Light Rain
3:35 AM 55.8 °F - 52.5 °F 89% 29.95 in 10.0 mi South 15.0 mph - N/A Rain Light Rain
3:55 AM 55.9 °F - 52.7 °F 89% 29.94 in 10.0 mi South 19.6 mph 25.3 mph N/A   Light Drizzle
4:15 AM 56.3 °F - 52.3 °F 87% 29.94 in 10.0 mi South 20.7 mph 24.2 mph N/A   Light Drizzle
4:35 AM 56.8 °F - 52.2 °F 84% 29.94 in 10.0 mi South 20.7 mph 25.3 mph N/A   Mostly Cloudy
4:55 AM 57.0 °F - 51.8 °F 83% 29.94 in 10.0 mi South 18.4 mph 25.3 mph N/A   Mostly Cloudy
5:15 AM 56.8 °F - 51.4 °F 82% 29.94 in 10.0 mi South 19.6 mph 28.8 mph N/A   Light Drizzle
5:35 AM 56.3 °F - 51.6 °F 84% 29.94 in 10.0 mi South 19.6 mph 27.6 mph N/A   Drizzle
5:55 AM 55.8 °F - 51.6 °F 86% 29.94 in 10.0 mi South 17.3 mph 25.3 mph N/A Rain Light Rain
6:15 AM 55.6 °F - 51.8 °F 87% 29.94 in 10.0 mi South 18.4 mph 24.2 mph N/A Rain Light Rain
6:35 AM 55.6 °F - 51.8 °F 87% 29.93 in 10.0 mi South 15.0 mph 26.5 mph N/A Rain Rain
6:55 AM 55.4 °F - 51.8 °F 88% 29.93 in 10.0 mi South 17.3 mph 26.5 mph N/A   Drizzle
7:15 AM 55.4 °F - 52.0 °F 88% 29.92 in 7.0 mi South 18.4 mph - N/A Rain Light Rain
7:35 AM 55.6 °F - 52.3 °F 89% 29.92 in 10.0 mi South 15.0 mph 24.2 mph N/A Rain Light Rain
7:55 AM 55.8 °F - 52.9 °F 90% 29.93 in 5.0 mi South 18.4 mph 24.2 mph N/A Rain Light Rain
8:15 AM 55.8 °F - 53.1 °F 91% 29.93 in 3.0 mi SSW 16.1 mph 25.3 mph 0.03 in Rain Rain
8:35 AM 55.9 °F - 53.2 °F 91% 29.94 in 4.0 mi SSW 15.0 mph 23.0 mph 0.03 in Rain Rain
8:55 AM 55.9 °F - 53.1 °F 90% 29.94 in 3.0 mi SSW 16.1 mph 24.2 mph 0.03 in Rain Rain
9:15 AM 55.6 °F - 52.9 °F 91% 29.94 in 3.0 mi SSW 15.0 mph 20.7 mph N/A Rain Light Rain
9:35 AM 55.8 °F - 53.1 °F 91% 29.92 in 5.0 mi SSW 16.1 mph 21.9 mph N/A Rain Light Rain
9:55 AM 56.5 °F - 53.4 °F 89% 29.92 in 10.0 mi SSW 15.0 mph 23.0 mph N/A   Overcast
10:15 AM 56.5 °F - 53.2 °F 89% 29.91 in 10.0 mi SSW 17.3 mph 24.2 mph N/A   Overcast
10:35 AM 56.7 °F - 53.2 °F 88% 29.90 in 10.0 mi SSW 15.0 mph 20.7 mph N/A   Overcast
10:55 AM 56.7 °F - 53.1 °F 88% 29.92 in 10.0 mi SSW 16.1 mph 24.2 mph N/A   Overcast
11:15 AM 57.2 °F - 53.2 °F 87% 29.91 in 10.0 mi SSW 16.1 mph - N/A   Overcast
11:35 AM 57.6 °F - 54.0 °F 88% 29.93 in 7.0 mi SW 19.6 mph 25.3 mph N/A   Overcast
11:55 AM 52.3 °F - 49.1 °F 89% 29.95 in 7.0 mi West 20.7 mph 24.2 mph N/A Rain Light Rain
12:15 PM 50.9 °F - 48.2 °F 90% 29.95 in 3.0 mi West 15.0 mph 21.9 mph N/A   Light Drizzle
12:35 PM 50.0 °F - 47.3 °F 90% 29.96 in 5.0 mi West 15.0 mph 19.6 mph N/A   Overcast
12:55 PM 48.2 °F - 45.1 °F 89% 29.96 in 3.0 mi West 16.1 mph 21.9 mph N/A   Overcast
1:15 PM 47.3 °F - 44.6 °F 90% 29.97 in 7.0 mi West 17.3 mph - N/A   Overcast
1:35 PM 46.4 °F 40.1 °F 43.5 °F 90% 29.99 in 7.0 mi West 15.0 mph - N/A   Overcast
1:55 PM 46.0 °F 39.9 °F 43.0 °F 89% 30.00 in 5.0 mi WNW 13.8 mph - N/A   Drizzle
2:15 PM 45.9 °F 39.1 °F 42.3 °F 87% 30.02 in 10.0 mi West 16.1 mph - N/A   Overcast
2:35 PM 45.3 °F 39.3 °F 42.1 °F 88% 30.02 in 10.0 mi WNW 12.7 mph - N/A   Overcast
2:55 PM 45.0 °F 37.9 °F 41.9 °F 89% 30.03 in 10.0 mi WNW 16.1 mph 20.7 mph N/A   Overcast
3:15 PM 44.6 °F 37.8 °F 40.6 °F 86% 30.04 in 10.0 mi NW 15.0 mph 21.9 mph N/A   Overcast
3:35 PM 44.2 °F 37.3 °F 40.3 °F 86% 30.06 in 10.0 mi WNW 15.0 mph 19.6 mph N/A   Overcast
3:55 PM 43.7 °F 36.0 °F 40.1 °F 87% 30.05 in 7.0 mi WNW 17.3 mph - N/A   Overcast
4:15 PM 43.7 °F 36.0 °F 39.2 °F 84% 30.08 in 10.0 mi WNW 17.3 mph 26.5 mph N/A   Overcast
4:35 PM 43.3 °F 35.2 °F 38.5 °F 83% 30.08 in 10.0 mi NW 18.4 mph 21.9 mph N/A   Overcast
4:55 PM 43.3 °F 36.8 °F 38.3 °F 82% 30.09 in 10.0 mi NW 12.7 mph 23.0 mph N/A   Overcast
5:15 PM 43.3 °F 37.7 °F 38.5 °F 83% 30.10 in 10.0 mi NW 10.4 mph - N/A   Overcast
5:35 PM 43.7 °F 38.1 °F 38.8 °F 83% 30.12 in 10.0 mi NW 10.4 mph - N/A   Overcast
5:55 PM 43.7 °F 38.6 °F 39.2 °F 84% 30.13 in 10.0 mi WNW 9.2 mph - N/A   Overcast
6:15 PM 43.9 °F 37.2 °F 39.2 °F 84% 30.14 in 10.0 mi WNW 13.8 mph - N/A   Overcast
6:35 PM 43.7 °F 37.7 °F 38.7 °F 82% 30.14 in 10.0 mi NW 11.5 mph - N/A   Scattered Clouds
6:55 PM 43.3 °F 38.6 °F 38.5 °F 83% 30.15 in 10.0 mi NW 8.1 mph - N/A   Clear
7:15 PM 43.2 °F 38.4 °F 38.3 °F 83% 30.15 in 10.0 mi NW 8.1 mph - N/A   Clear
7:35 PM 42.8 °F 38.6 °F 37.8 °F 82% 30.15 in 10.0 mi WNW 6.9 mph - N/A   Clear
7:55 PM 42.3 °F 38.6 °F 37.8 °F 84% 30.15 in 10.0 mi WNW 5.8 mph - N/A   Clear
8:15 PM 41.2 °F 38.2 °F 37.2 °F 86% 30.16 in 10.0 mi West 4.6 mph - N/A   Clear
8:35 PM 40.1 °F 36.9 °F 36.7 °F 88% 30.15 in 10.0 mi West 4.6 mph - N/A   Clear
8:55 PM 40.3 °F 35.5 °F 36.7 °F 87% 30.16 in 10.0 mi West 6.9 mph - N/A   Clear
9:15 PM 39.9 °F 35.8 °F 36.0 °F 86% 30.16 in 10.0 mi West 5.8 mph - N/A   Clear
9:35 PM 39.2 °F 33.6 °F 35.1 °F 85% 30.17 in 10.0 mi WNW 8.1 mph - N/A   Clear
9:55 PM 38.7 °F 32.9 °F 34.0 °F 83% 30.17 in 10.0 mi WNW 8.1 mph - N/A   Clear
10:15 PM 39.2 °F 32.5 °F 32.9 °F 78% 30.18 in 10.0 mi NW 10.4 mph - N/A   Clear
10:35 PM 38.7 °F 32.9 °F 32.2 °F 78% 30.18 in 10.0 mi NW 8.1 mph - N/A   Clear
10:55 PM 37.9 °F 32.1 °F 32.0 °F 79% 30.19 in 10.0 mi NW 8.1 mph - N/A   Clear
11:15 PM 37.4 °F 31.4 °F 31.8 °F 80% 30.19 in 10.0 mi NW 8.1 mph - N/A   Clear
11:35 PM 36.9 °F 30.7 °F 31.1 °F 80% 30.20 in 10.0 mi NW 8.1 mph - N/A   Clear
11:55 PM 36.5 °F 30.3 °F 30.7 °F 80% 30.20 in 10.0 mi NW 8.1 mph - N/A   Clear